Weather History for KEGV - October, 2013

Change the Weather History Date:

Tuesday, October 22, 2013

  Actual Average Record
Temperature  
Mean Temperature 34 °F -  
Max Temperature 38 °F 45 °F 66 °F (2000)
Min Temperature 31 °F 28 °F 17 °F (1998)
Degree Days  
Heating Degree Days 30    
Moisture  
Dew Point 29 °F    
Average Humidity 85    
Maximum Humidity 100    
Minimum Humidity 58    
Precipitation  
Precipitation 0.06 in - - ()
Sea Level Pressure  
Sea Level Pressure 29.85 in    
Wind  
Wind Speed 9 mph (NW)    
Max Wind Speed 17 mph    
Max Gust Speed 21 mph    
Visibility 9 miles    
Events Snow    
Averages and records for this station are not official NWS values.
T = Trace of Precipitation, MM = Missing Value Source: NWS Daily Summary

Daily Weather History Graph

Daily Weather History Graph

Search for Another Location

Airport or City:

Trip Planner

Search our weather history database for the weather conditions in past years. The results will help you decide how hot, cold, wet, or windy it might be!

Date:

Astronomy

Oct. 22, 2013 Rise Set
Actual Time 7:23 AM CDT 5:58 PM CDT
Civil Twilight 6:53 AM CDT 6:28 PM CDT
Nautical Twilight 6:18 AM CDT 7:03 PM CDT
Astronomical Twilight 5:43 AM CDT 7:38 PM CDT
Moon 8:30 PM CDT (10/22) 11:00 AM CDT (10/22)
Length of Visible Light 11h 35m
Length of Day
10h 34m
Waning Gibbous, 86% of the Moon is Illuminated
Oct 22
Waning Gibbous
Oct 26
Last Quarter
Nov 3
New
Nov 9
First Quarter
Nov 17
Full

Hourly Weather History & Observations

Time (CDT) Temp. Windchill Dew Point Humidity Pressure Visibility Wind Dir Wind Speed Gust Speed Precip Events Conditions
12:15 AM 32.0 °F 23.6 °F 31.3 °F 97% 29.70 in 1.8 mi West 10.4 mph 17.3 mph N/A Snow Light Snow
12:35 AM 32.0 °F 22.5 °F 31.8 °F 99% 29.71 in 2.5 mi West 12.7 mph 19.6 mph N/A Snow Light Snow
12:55 AM 32.0 °F 23.0 °F 32.0 °F 100% 29.71 in 1.8 mi West 11.5 mph 19.6 mph N/A Snow Light Snow
1:15 AM 32.0 °F 24.2 °F 32.0 °F 100% 29.72 in 1.0 mi West 9.2 mph - N/A Snow Light Snow
1:35 AM 32.2 °F 24.4 °F 32.0 °F 99% 29.73 in 1.5 mi WNW 9.2 mph 16.1 mph N/A Snow Light Snow
1:55 AM 32.0 °F 24.2 °F 32.0 °F 100% 29.74 in 2.5 mi WNW 9.2 mph - N/A Snow Light Snow
2:15 AM 32.4 °F 25.3 °F 32.2 °F 99% 29.75 in 3.0 mi WNW 8.1 mph - N/A Snow Light Snow
2:35 AM 32.4 °F 26.0 °F 32.2 °F 99% 29.75 in 2.0 mi WNW 6.9 mph - N/A Snow Light Snow
2:55 AM 32.9 °F 25.3 °F 32.0 °F 96% 29.76 in 10.0 mi NW 9.2 mph - N/A   Overcast
3:15 AM 32.5 °F 25.5 °F 32.0 °F 98% 29.77 in 4.0 mi NW 8.1 mph - N/A Snow Light Snow
3:35 AM 32.9 °F 24.1 °F 31.6 °F 95% 29.77 in 10.0 mi NW 11.5 mph 17.3 mph N/A   Overcast
3:55 AM 32.5 °F 25.5 °F 31.3 °F 95% 29.78 in 10.0 mi NW 8.1 mph - N/A   Overcast
4:15 AM 32.2 °F 25.0 °F 31.5 °F 97% 29.79 in 10.0 mi WNW 8.1 mph 16.1 mph N/A   Overcast
4:35 AM 32.0 °F 23.6 °F 31.1 °F 96% 29.79 in 10.0 mi NW 10.4 mph - N/A   Overcast
4:55 AM 32.0 °F 24.2 °F 31.1 °F 96% 29.80 in 10.0 mi NW 9.2 mph 17.3 mph N/A   Overcast
5:15 AM 32.2 °F 23.8 °F 31.1 °F 96% 29.80 in 10.0 mi NW 10.4 mph - N/A   Overcast
5:35 AM 31.8 °F 24.6 °F 30.2 °F 94% 29.81 in 10.0 mi NW 8.1 mph - N/A   Overcast
5:55 AM 31.8 °F 26.2 °F 30.9 °F 96% 29.82 in 10.0 mi WNW 5.8 mph - N/A   Mostly Cloudy
6:15 AM 32.0 °F 25.6 °F 31.1 °F 96% 29.82 in 10.0 mi WNW 6.9 mph - N/A   Overcast
6:35 AM 31.1 °F 23.7 °F 30.7 °F 99% 29.82 in 10.0 mi WNW 8.1 mph - N/A   Overcast
6:55 AM 32.0 °F 24.8 °F 30.9 °F 96% 29.82 in 10.0 mi NW 8.1 mph - N/A   Overcast
7:15 AM 32.0 °F 24.8 °F 30.9 °F 96% 29.83 in 10.0 mi NW 8.1 mph - N/A   Overcast
7:35 AM 32.0 °F 25.6 °F 30.9 °F 96% 29.83 in 4.0 mi NW 6.9 mph - N/A Snow Light Snow
7:55 AM 31.8 °F 26.2 °F 30.9 °F 96% 29.84 in 10.0 mi WNW 5.8 mph - N/A   Mostly Cloudy
8:15 AM 32.0 °F 25.6 °F 31.5 °F 98% 29.84 in 10.0 mi WNW 6.9 mph - N/A   Overcast
8:35 AM 32.2 °F 25.0 °F 31.6 °F 98% 29.85 in 10.0 mi WNW 8.1 mph - N/A   Overcast
8:55 AM 32.0 °F 26.4 °F 31.8 °F 99% 29.86 in 7.0 mi WNW 5.8 mph - N/A Snow Light Snow
9:15 AM 32.5 °F 24.8 °F 31.3 °F 95% 29.86 in 10.0 mi NW 9.2 mph - N/A   Overcast
9:35 AM 33.8 °F 24.8 °F 29.7 °F 85% 29.86 in 10.0 mi NW 12.7 mph 17.3 mph N/A   Overcast
9:55 AM 33.4 °F 25.9 °F 29.7 °F 86% 29.87 in 10.0 mi NW 9.2 mph - 0.02 in   Overcast
10:15 AM 34.3 °F 27.0 °F 30.2 °F 85% 29.87 in 10.0 mi NNW 9.2 mph - 0.01 in   Mostly Cloudy
10:35 AM 35.1 °F 27.4 °F 29.5 °F 80% 29.88 in 10.0 mi NNW 10.4 mph - 0.02 in   Mostly Cloudy
10:55 AM 34.7 °F 27.5 °F 28.9 °F 79% 29.88 in 10.0 mi NNW 9.2 mph 16.1 mph 0.03 in   Overcast
11:15 AM 34.7 °F 26.4 °F 30.7 °F 85% 29.88 in 10.0 mi NW 11.5 mph - 0.01 in   Overcast
11:35 AM 35.6 °F 28.0 °F 31.1 °F 84% 29.88 in 10.0 mi NW 10.4 mph - 0.01 in   Overcast
11:55 AM 36.3 °F 28.0 °F 30.0 °F 78% 29.88 in 10.0 mi NNW 12.7 mph 18.4 mph 0.01 in   Overcast
12:15 PM 34.2 °F 26.2 °F 28.0 °F 78% 29.88 in 10.0 mi NW 10.4 mph 20.7 mph N/A   Overcast
12:35 PM 35.4 °F 28.4 °F 28.2 °F 75% 29.88 in 10.0 mi NW 9.2 mph - N/A   Overcast
12:55 PM 36.0 °F 30.3 °F 27.7 °F 72% 29.88 in 10.0 mi NNW 6.9 mph 11.5 mph N/A   Overcast
1:15 PM 38.1 °F 28.8 °F 24.6 °F 58% 29.88 in 10.0 mi NW 17.3 mph 20.7 mph N/A   Scattered Clouds
1:35 PM 38.3 °F 31.4 °F 25.0 °F 59% 29.88 in 10.0 mi NNW 10.4 mph 18.4 mph N/A   Scattered Clouds
1:55 PM 38.7 °F 30.5 °F 28.6 °F 67% 29.88 in 10.0 mi WNW 13.8 mph 17.3 mph N/A   Mostly Cloudy
2:15 PM 37.8 °F 29.8 °F 28.0 °F 68% 29.87 in 10.0 mi WNW 12.7 mph 18.4 mph N/A   Scattered Clouds
2:35 PM 38.1 °F 31.2 °F 27.7 °F 66% 29.87 in 10.0 mi WNW 10.4 mph - N/A   Mostly Cloudy
2:55 PM 36.5 °F 28.7 °F 26.1 °F 66% 29.88 in 10.0 mi NNW 11.5 mph 18.4 mph N/A   Overcast
3:15 PM 36.1 °F 30.6 °F 26.4 °F 68% 29.88 in 10.0 mi NNW 6.9 mph - N/A   Mostly Cloudy
3:35 PM 35.1 °F 28.6 °F 27.5 °F 74% 29.88 in 10.0 mi North 8.1 mph - N/A   Overcast
3:55 PM 35.1 °F 31.0 °F 28.6 °F 77% 29.89 in 10.0 mi North 4.6 mph - N/A   Overcast
4:15 PM 37.0 °F 28.5 °F 27.5 °F 68% 29.90 in 10.0 mi North 13.8 mph - N/A   Overcast
4:35 PM 33.1 °F 28.7 °F 28.4 °F 83% 29.90 in 5.0 mi North 4.6 mph - N/A Snow Light Snow
4:55 PM 34.2 °F 25.7 °F 27.1 °F 75% 29.91 in 10.0 mi North 11.5 mph - N/A   Overcast
5:15 PM 32.2 °F 27.7 °F 28.4 °F 86% 29.91 in 5.0 mi NNW 4.6 mph - N/A Snow Light Snow
5:35 PM 33.1 °F 26.9 °F 25.7 °F 74% 29.91 in 10.0 mi NW 6.9 mph - N/A   Overcast
5:55 PM 32.9 °F 25.9 °F 24.6 °F 72% 29.91 in 10.0 mi NW 8.1 mph - N/A   Overcast
6:15 PM 32.9 °F 27.5 °F 24.8 °F 72% 29.91 in 10.0 mi NW 5.8 mph - N/A   Overcast
6:35 PM 32.4 °F 26.9 °F 25.2 °F 75% 29.91 in 10.0 mi NW 5.8 mph - N/A   Overcast
6:55 PM 32.2 °F 27.7 °F 24.8 °F 74% 29.92 in 10.0 mi WNW 4.6 mph - N/A   Overcast
7:15 PM 32.0 °F 28.7 °F 24.8 °F 75% 29.92 in 10.0 mi NW 3.5 mph - N/A   Overcast
7:35 PM 31.5 °F 24.9 °F 25.2 °F 78% 29.92 in 10.0 mi NW 6.9 mph - N/A   Overcast
7:55 PM 31.5 °F 26.8 °F 25.7 °F 79% 29.92 in 10.0 mi WNW 4.6 mph - N/A   Mostly Cloudy
8:15 PM 32.0 °F 28.7 °F 26.4 °F 80% 29.92 in 10.0 mi WNW 3.5 mph - N/A   Overcast
8:35 PM 32.0 °F 26.4 °F 26.4 °F 80% 29.92 in 10.0 mi WNW 5.8 mph - N/A   Overcast
8:55 PM 32.0 °F 27.5 °F 26.2 °F 79% 29.92 in 10.0 mi WNW 4.6 mph - N/A   Overcast
9:35 PM 31.5 °F 26.8 °F 25.7 °F 79% 29.92 in 10.0 mi WNW 4.6 mph - N/A   Overcast
10:15 PM 31.5 °F 26.8 °F 26.1 °F 80% 29.91 in 10.0 mi WNW 4.6 mph - N/A   Overcast
10:35 PM 31.8 °F 27.3 °F 25.7 °F 78% 29.91 in 10.0 mi West 4.6 mph - N/A   Overcast
10:55 PM 31.8 °F 27.3 °F 26.1 °F 79% 29.91 in 10.0 mi WNW 4.6 mph - N/A   Overcast
11:15 PM 31.8 °F 27.3 °F 26.2 °F 80% 29.91 in 10.0 mi West 4.6 mph - N/A   Overcast
11:35 PM 31.8 °F 27.3 °F 26.2 °F 80% 29.91 in 10.0 mi West 4.6 mph - N/A Snow Light Snow
11:55 PM 31.6 °F 27.0 °F 26.4 °F 81% 29.90 in 10.0 mi WNW 4.6 mph - N/A   Overcast